ROMMA est une association bénévole à but non lucratif. Votre soutien est indispensable : ADHERER à ROMMA ou FAIRE un DON

Val-d'Isère - (73, Savoie)

Haute-Maurienne (1850 m)   Longitude: 6° 58' 52'' E   Latitude: 45° 26' 53'' N Station partenaire n°93
 

Détail journalier du     <<     >>

Température Precipitation Humidité Vent Dir Rafale Dir. rafale Ensol.
Heure (°C) (mm) (%) (km/h) (km/h) (min)
01:00 3.90666E16O0
02:00 3.70667E19E0
03:00 4.20636E19ESE0
04:00 4.80615E18ESE0
05:00 4.30626E13ESE0
06:00 4.80586ENE15E0
07:00 4.90578ENE19ENE0
08:00 5.20585E16S30
09:00 5.80566E21NO60
10:00 6.40589ENE37NNO60
11:00 6.306110N45NO60
12:00 7.20569NO34NO60
13:00 6.805913NNO44NNO60
14:00 6.606114NO40NNO60
15:00 6.406424NO53NO60
16:00 6.306318NO48NO60
17:00 7.106011NO37NNO0
18:00 5.706417NO44NO30
19:00 5.406510NO34NNO60
20:00 5.00666ONO26NNO30
21:00 4.00715E16O0
22:00 3.60715E21E0
23:00 4.40685E24NNE0
minuit 5.30635NE24N0

Graphique du 18-04-2019

 

Serveur OMMA